PRSC-EO1
Last updated on Mon Jun 22 2026 00:02:52 GMT+0000 (Coordinated Universal Time)
1 62725U 25012A 26172.54333590 .00005470 00000+0 27495-3 0 9997
2 62725 97.4221 244.9183 0005080 232.9814 127.0956 15.17653800 78856
Next 0 passes for location: London (51.5072 / 0.1276)
No passes found over London.